Location: Elstree
(51.6403°N, 0.2969°W)
Time: 14:49:54
(UTC+00:00)

Cosmos 1992 Rocket - Pass Details

Date: 03 March 2021
Orbit: 759 x 765 km, 74.0° (Epoch: 12 April)

Event Time Altitude Azimuth Distance (km) Brightness Sun altitude
Rises 19:29:27 0° 210° (SSW) 3,220 7.5 -16.9°
Reaches altitude 10° 19:31:49 10° 213° (SSW) 2,298 6.7 -17.3°
Maximum altitude 19:37:01 70° 297° (WNW) 817 4.3 -18.0°
Drops below altitude 10° 19:42:16 10° 22° (NNE) 2,310 6.4 -18.8°
Sets 19:44:40 0° 24° (NNE) 3,239 7.1 -19.2°
